Regional Weather Roundup
Issued by NWS

Home | Current Version | Previous Version | Graphics & Text | Print | Product List | Glossary On
Versions: 1 2 3 4 5 6 7 8 9 10 11 12 13 14 15 16 17 18 19 20 21 22 23 24 25 26 27 28 29 30 31 32 33 34 35 36 37 38 39 40 41 42 43 44 45 46 47 48 49 50
000
ASUS43 KDTX 060001
RWRMI
MICHIGAN HOURLY REGIONAL WEATHER ROUNDUP
NATIONAL WEATHER SERVICE DETROIT/PONTIAC MI
700 PM EST MON DEC 05 2016

NOTE: "FAIR" INDICATES FEW OR NO CLOUDS BELOW 12,000 FEET WITH NO
SIGNIFICANT WEATHER AND/OR OBSTRUCTION TO VISIBILITY.

MIZ047>049-052>055-059>063-066>070-074>076-081>083-060100-
SOUTHEAST LOWER MICHIGAN

CITY           SKY/WX    TMP DP  RH WIND       PRES   REMARKS
ADRIAN         CLEAR     30  28  92 S3        30.07R
6HR MIN TEMP:  30; 6HR MAX TEMP:  36;

ALMA           CLEAR     33  32  94 S8        30.04S WCI  26
ANN ARBOR      CLEAR     28  26  92 CALM      30.05F
BAD AXE        CLEAR     33  29  86 SW3       30.04S
CARO           CLEAR     33  30  91 SW3       30.04R
DETROIT CITY   CLEAR     35  28  75 W7        30.07S WCI  29
6HR MIN TEMP:  35; 6HR MAX TEMP:  42;

DETROIT        MOCLDY    34  28  79 SW5       30.07F WCI  30
6HR MIN TEMP:  34; 6HR MAX TEMP:  41;

FLINT          MOCLDY    34  28  79 SW7       30.06S WCI  28
6HR MIN TEMP:  34; 6HR MAX TEMP:  42;

GROSSE ILE     CLEAR     35  28  78 CALM      30.06S
6HR MIN TEMP:  35; 6HR MAX TEMP:  41;

HILLSDALE      PTCLDY    28  27  93 CALM      30.03R FOG
HOWELL         PTCLDY    33  28  81 SW3       30.05R
6HR MIN TEMP:  32; 6HR MAX TEMP:  40;


CITY           SKY/WX    TMP DP  RH WIND       PRES   REMARKS
JACKSON        CLEAR     32  26  78 CALM      30.04S
6HR MIN TEMP:  31; 6HR MAX TEMP:  37;

LAMBERTVILLE   PTCLDY    31  28  86 CALM      30.07S
6HR MIN TEMP:  31; 6HR MAX TEMP:  40;

LANSING        CLOUDY    33  27  78 S7        30.05F WCI  27
6HR MIN TEMP:  33; 6HR MAX TEMP:  39;

LAPEER         NOT AVBL
MASON          PTCLDY    32  29  89 CALM      30.05S
MONROE         CLEAR     30  29  94 CALM      30.07R
6HR MIN TEMP:  30; 6HR MAX TEMP:  40;

MT. CLEMENS    PTCLDY    35  29  80 SW6       30.04S WCI  30
6HR MIN TEMP:  35; 6HR MAX TEMP:  44;

PONTIAC        PTCLDY    34  28  79 SW5       30.04S WCI  30
6HR MIN TEMP:  34; 6HR MAX TEMP:  41;

PORT HOPE        N/A     36  30  79 CALM      30.03R
6HR MIN TEMP:  36; 6HR MAX TEMP:  42;

PORT HURON     CLEAR     30  28  93 CALM      30.06S
TRI CITIES     CLEAR     36  32  85 SW8       30.04F WCI  30
6HR MIN TEMP:  36; 6HR MAX TEMP:  41;

MIDLAND        FAIR      37  31  79 S6        30.03S WCI  32
6HR MIN TEMP:  37; 6HR MAX TEMP:  43;

TROY           CLEAR     36  28  74 CALM      30.08S
SAGINAW HB     CLEAR     36  30  80 SW9       30.04S WCI  29
$$
MIZ043>046-050>051-056>058-064>065-071>073-077>080-060100-
SOUTHWEST LOWER MICHIGAN

CITY           SKY/WX    TMP DP  RH WIND       PRES   REMARKS
BATTLE CREEK   PTCLDY    33  29  85 SE5       30.02F WCI  29
6HR MIN TEMP:  33; 6HR MAX TEMP:  35;

BENTON HARBOR  CLOUDY    33  29  85 SE6       30.01F WCI  28
6HR MIN TEMP:  33; 6HR MAX TEMP:  34;

BIG RAPIDS     CLOUDY    37  32  81 SW6       30.00S WCI  33
6HR MIN TEMP:  37; 6HR MAX TEMP:  43;

COLDWATER      CLOUDY    32  29  90 SE6       30.02F WCI  26
6HR MIN TEMP:  32; 6HR MAX TEMP:  35;

FREMONT        CLOUDY    37  30  78 SW8       30.02R WCI  30
6HR MIN TEMP:  37; 6HR MAX TEMP:  41;

HOLLAND        CLOUDY    34  29  82 SE6       30.03F WCI  29
6HR MIN TEMP:  34; 6HR MAX TEMP:  41;

GRAND RAPIDS   CLOUDY    34  28  79 S9        30.04S WCI  27
6HR MIN TEMP:  34; 6HR MAX TEMP:  39;

IONIA          FAIR      32  29  88 S6        30.03S WCI  26
6HR MIN TEMP:  32; 6HR MAX TEMP:  39;

KALAMAZOO      CLOUDY    33  28  81 SE5       30.01F WCI  29
6HR MIN TEMP:  33; 6HR MAX TEMP:  35;

LUDINGTON      MOCLDY    40  34  78 SW14      29.99S WCI  32
6HR MIN TEMP:  39; 6HR MAX TEMP:  41;

MARSHALL       MOCLDY    32  29  89 CALM      30.03F
6HR MIN TEMP:  32; 6HR MAX TEMP:  36;

MOUNT PLEASANT PTCLDY    36  31  82 S5        30.02S WCI  32
6HR MIN TEMP:  36; 6HR MAX TEMP:  41;

MUSKEGON       CLOUDY    37  31  78 SE8       30.03S WCI  31
6HR MIN TEMP:  37; 6HR MAX TEMP:  44;

SOUTH HAVEN    CLOUDY    34  32  92 SE6       30.01F WCI  29
$$
MIZ016>042-060100-
NORTHERN LOWER MICHIGAN

CITY           SKY/WX    TMP DP  RH WIND       PRES   REMARKS
ALPENA         MOCLDY    36  28  73 SW3       30.00R
6HR MIN TEMP:  31; 6HR MAX TEMP:  41;

BEAVER ISLAND  MOCLDY    38  32  78 SW9G17    29.97R WCI  32
6HR MIN TEMP:  38; 6HR MAX TEMP:  40;

BELLAIRE       CLEAR     33  31  92 CALM      29.99R
6HR MIN TEMP:  33; 6HR MAX TEMP:  42;

CADILLAC       PTCLDY    34  30  85 SW8       29.98R WCI  27
CHARLEVOIX     MOCLDY    38  32  78 SW7       30.01R WCI  33
6HR MIN TEMP:  38; 6HR MAX TEMP:  42;

FRANKFORT      MOCLDY    39  33  81 SE6       29.98S WCI  35
GAYLORD        PTCLDY    32  27  81 S5        29.96S WCI  27
6HR MIN TEMP:  31; 6HR MAX TEMP:  39;

GRAYLING       CLEAR     27  27  97 CALM      29.99S
HARBOR SPRINGS CLOUDY    39  32  76 S9        29.97R WCI  33
HOUGHTON LAKE  CLEAR     32  28  85 S5        29.99S WCI  27
6HR MIN TEMP:  32; 6HR MAX TEMP:  40;

MANISTEE       PTCLDY    37  31  78 CALM      29.99S
OSCODA         CLEAR     32  29  86 MISG      30.02R
6HR MIN TEMP:  32; 6HR MAX TEMP:  44;

PELLSTON       MOCLDY    35  30  82 S5        29.97R WCI  31
6HR MIN TEMP:  34; 6HR MAX TEMP:  40;

ROGERS CITY    CLOUDY    37  32  80 SW6       30.00R WCI  33
TRAVERSE CITY  CLEAR     33  29  85 CALM      29.99R
6HR MIN TEMP:  33; 6HR MAX TEMP:  43;

$$
MIZ007>008-015-060100-
EASTERN UPPER MICHIGAN

CITY           SKY/WX    TMP DP  RH WIND       PRES   REMARKS
KINROSS        MOCLDY    28  27  96 CALM      29.96R
6HR MIN TEMP:  27; 6HR MAX TEMP:  39;

MACKINAC ISLAN CLOUDY    38  30  72 W10       29.96R WCI  31
6HR MIN TEMP:  37; 6HR MAX TEMP:  38;

NEWBERRY       CLOUDY    34  31  91 SW3       29.94R
6HR MIN TEMP:  34; 6HR MAX TEMP:  36;

S. S. MARIE    CLEAR     33  28  81 SW5       29.95R WCI  29
6HR MIN TEMP:  33; 6HR MAX TEMP:  38;

MUNISING         N/A     33  31  92 S6        29.92R WCI  28
6HR MIN TEMP:  31; 6HR MAX TEMP:  41;

$$
MIZ004>006-011>014-085-060100-
CENTRAL UPPER MICHIGAN

CITY           SKY/WX    TMP DP  RH WIND       PRES   REMARKS
MANISTIQUE     MOCLDY    35  33  91 SW3       29.95R
6HR MIN TEMP:  35; 6HR MAX TEMP:  41;

ESCANABA       CLOUDY    34  32  92 SW7       29.95R WCI  28
6HR MIN TEMP:  33; 6HR MAX TEMP:  39;

MENOMINEE      CLOUDY    35  32  88 SW10      29.96S WCI  27
6HR MIN TEMP:  34; 6HR MAX TEMP:  37;

SAWYER-GWINN   CLEAR     30  30 100 S12G17    29.89R WCI  21
$$
MIZ001>003-009>011-084-060100-
WESTERN UPPER MICHIGAN

CITY           SKY/WX    TMP DP  RH WIND       PRES   REMARKS
IRON MOUNTAIN  CLOUDY    33  28  81 S9        29.89R WCI  25
6HR MIN TEMP:  33; 6HR MAX TEMP:  41;

HOUGHTON       CLEAR     31  26  82 E6        29.83S WCI  25
6HR MIN TEMP:  29; 6HR MAX TEMP:  36;

COPPER HARBOR    N/A     33  32  96 CALM      29.87R
6HR MIN TEMP:  33; 6HR MAX TEMP:  37;

IRONWOOD       CLOUDY    36  30  79 S8        29.81S WCI  30
6HR MIN TEMP:  36; 6HR MAX TEMP:  40;

$$

ABBREVIATIONS USED IN REMARKS
   TC - TEMPERATURE IN CELSIUS
  WCI - WIND CHILL INDEX
   HX - HEAT INDEX
  VSB - VISIBILITY




USA.gov is the U.S. government's official web portal to all federal, state and local government web resources and services.